Regional Weather Roundup
Issued by NWS

Home | Current Version | Previous Version | Graphics & Text | Print | Product List | Glossary On
Versions: 1 2 3 4 5 6 7 8 9 10 11 12 13 14 15 16 17 18 19 20 21 22 23 24 25 26 27 28 29 30 31 32 33 34 35 36 37 38 39 40 41 42 43 44 45 46 47 48 49 50
708
ASUS43 KIND 230409
RWRIN

WEATHER ROUNDUP FOR INDIANA
NATIONAL WEATHER SERVICE INDIANAPOLIS IN
1200 AM EDT SAT SEP 23 2017

NOTE: "FAIR" INDICATES FEW OR NO CLOUDS BELOW 12,000 FEET WITH NO
SIGNIFICANT WEATHER AND/OR OBSTRUCTIONS TO VISIBILITY.

* - STATION DOES NOT REPORT WEATHER SUCH AS PRECIPITATION OR FOG.

+ - STATION NOT QUALITY CONTROLLED BY THE NATIONAL WEATHER SERVICE.
    USE DATA WITH CAUTION...ESPECIALLY DEWPOINT AND RELATIVE
    HUMIDITY OBSERVATIONS.

INZ001>003-010>013-019-020-230500-
NORTHWEST INDIANA

CITY           SKY/WX    TMP DP  RH WIND       PRES   REMARKS
GARY /AIRPORT/ CLEAR     72  68  89 SE3       30.05S
KNOX *+        CLEAR     70  68  94 CALM      30.05S
LA PORTE +     CLEAR     71  67  87 CALM      30.07S
MICHIGAN CITY+ FOG       70  70 100 CALM      30.06S VSB 3/4
MONTICELLO +   CLEAR     72  69  91 CALM      30.05S
RENSSELAER +   CLEAR     72  63  73 CALM      30.06S
VALPARAISO     CLEAR     73  69  87 CALM      30.06S

$$

LMZ046-743>745-230500-
SOUTHERN LAKE MICHIGAN

STATION/POSITION TIME  TEMP    WIND        PRES    WAVE
                       AIR SEA DIR/SP/G            HT
                 (UTC) (F)     (DEG/KT/KT) (MB)    (FT)
BURNS HARBOR     0340   82     150/  7/ 10 1017.9R
MICHIGAN CITY    0340   79     130/  5/  6   N/A
5NW MICH CITY    0400   74 72  120/  2/  2   N/A     0

$$

INZ004-005-014>016-021>024-230500-
NORTH CENTRAL INDIANA

CITY           SKY/WX    TMP DP  RH WIND       PRES   REMARKS
GOSHEN         CLEAR     71  67  87 CALM      30.07S
LOGANSPORT +   CLEAR     70  63  78 CALM      30.07S
PERU/GRISSOM   CLEAR     72  69  90 CALM      30.06S
SOUTH BEND     CLEAR     71  69  93 CALM      30.07R
WARSAW +       CLEAR     70  70 100 CALM      30.07S

$$

INZ006>009-017-018-025>027-230500-
NORTHEAST INDIANA

CITY           SKY/WX    TMP DP  RH WIND       PRES   REMARKS
AUBURN +       CLEAR     70  64  83 CALM      30.08F
FORT WAYNE     CLEAR     72  67  84 CALM      30.08S
HUNTINGTON +   CLEAR     72  69  89 CALM      30.07S
KENDALLVILLE + CLEAR     73  66  80 SE3       30.09S

$$

INZ028-029-035-036-043>045-051>053-230500-
WEST CENTRAL INDIANA

CITY           SKY/WX    TMP DP  RH WIND       PRES   REMARKS
GREENCASTLE +  CLEAR     70  64  83 CALM      30.07S
LAFAYETTE      CLEAR     70  69  97 CALM      30.04F
TERRE HAUTE    CLEAR     72  67  84 NE3       30.05R

$$

INZ030>032-037>040-046>048-054>057-064-065-230500-
CENTRAL INDIANA

CITY           SKY/WX    TMP DP  RH WIND       PRES   REMARKS
CP ATTERBURY + CLEAR     68  66  94 CALM      30.07S FOG
FISHERS *+     CLEAR     68  68 100 CALM      30.07R
FRANKFORT +    CLOUDY    70  68  94 CALM      30.08S
GREENWOOD *+   CLEAR     73  71  93 CALM      30.07S
INDIANAPOLIS   PTCLDY    75  65  70 CALM      30.06S
-EAGLE CREEK   CLEAR     73  69  87 CALM      30.06R
KOKOMO +       CLEAR     70  68  93 CALM      30.08R
MARION +       CLEAR     70  66  88 CALM      30.08S
MT COMFORT *+  CLEAR     66  66 100 CALM      30.07S
SHELBYVILLE    CLEAR     69  64  84 CALM      30.06S
ZIONSVILLE +   CLEAR     67  66  97 CALM      30.08S

$$

INZ033-034-041-042-049-050-058-059-230500-
EAST CENTRAL INDIANA

CITY           SKY/WX    TMP DP  RH WIND       PRES   REMARKS
MUNCIE         CLEAR     69  66  90 CALM      30.07S
RICHMOND +     CLEAR     68  64  88 E3        30.09F

$$

INZ060-061-067>069-081>083-085>088-230500-
SOUTHWEST INDIANA

CITY           SKY/WX    TMP DP  RH WIND       PRES   REMARKS
EVANSVILLE     CLEAR     72  67  84 CALM      30.04R
HUNTINGBURG +  CLEAR     70  69  97 CALM      30.05S
WASHINGTON +   CLEAR     70  68  94 CALM      30.04S

$$

INZ062-063-066-070>080-084-089>092-230500-
SOUTH CENTRAL AND SOUTHEAST INDIANA

CITY           SKY/WX    TMP DP  RH WIND       PRES   REMARKS
BEDFORD +      CLEAR     70  66  88 CALM      30.06R
BLOOMINGTON    CLEAR     70  65  84 CALM      30.06S
MADISON *+     CLEAR     68  66  94 CALM      30.08S
NORTH VERNON + CLEAR     66  66 100 CALM      30.07S FOG
SEYMOUR +      CLEAR     70  68  94 CALM      30.05S

$$





USA.gov is the U.S. government's official web portal to all federal, state and local government web resources and services.